Covington, KY

5:48 AM EST on December 16, 2019 (GMT -0500)
Cincinnati-Northern KY International

Weather History for KCVG - October, 2019

Change the Weather History Date:

Wednesday, October 2, 2019

  Actual Average Record
Temperature  
Mean Temperature 81 °F 61 °F  
Max Temperature 93 °F 71 °F 90 °F (1953)
Min Temperature 68 °F 50 °F 32 °F (1966)
Degree Days  
Heating Degree Days 0 6  
Month to date heating degree days 0 12  
Since 1 July heating degree days 0 70  
Cooling Degree Days 16 2  
Month to date cooling degree days 32 4  
Year to date cooling degree days 1474 1109  
Growing Degree Days 31 (Base 50)    
Moisture  
Dew Point 62 °F    
Average Humidity 56    
Maximum Humidity 84    
Minimum Humidity 30    
Precipitation  
Precipitation 0.00 in 0.10 in 1.56 in (1883)
Month to date precipitation 0.00 0.19  
Year to date precipitation 42.42 32.61  
Snow  
Snow 0.00 in 0.00 in 0.00 in ()
Month to date snowfall 0.0 0.0  
Since 1 July snowfall 0.0 0.0  
Since 1 September snowfall 0.0 0.0  
Snow Depth 0.00 in    
Sea Level Pressure  
Sea Level Pressure 29.94 in    
Wind  
Wind Speed 7 mph ()    
Max Wind Speed 23 mph    
Max Gust Speed 29 mph    
Visibility 10.0 miles    
Events      
T = Trace of Precipitation, MM = Missing Value Source: Averaged Metar Reports

Daily Weather History Graph

Daily Weather History Graph

Search for Another Location

Airport or City:

Astronomy

Oct. 02, 2019 Rise Set
Actual Time 7:35 AM EDT 7:20 PM EDT
Civil Twilight 7:08 AM EDT 7:46 PM EDT
Nautical Twilight 6:37 AM EDT 8:17 PM EDT
Astronomical Twilight 6:06 AM EDT 8:48 PM EDT
Moon 11:58 AM EDT (10/2) 10:15 PM EDT (10/2)
Length of Visible Light 12h 37m
Length of Day
11h 44m
Waxing Crescent, 20% of the Moon is Illuminated
Oct 2
Waxing Crescent
Oct 5
First Quarter
Oct 13
Full
Oct 21
Last Quarter
Oct 27
New

Hourly Weather History & Observations

Time (EDT) Temp. Heat Index Dew Point Humidity Pressure Visibility Wind Dir Wind Speed Gust Speed Precip Events Conditions
12:52 AM 72.0 °F - 62.1 °F 71% 29.95 in 10.0 mi SSW 5.8 mph - N/A   Clear
1:52 AM 73.0 °F - 63.0 °F 71% 29.94 in 10.0 mi SSW 6.9 mph - N/A   Clear
2:52 AM 73.0 °F - 63.0 °F 71% 29.95 in 10.0 mi SSW 5.8 mph - N/A   Clear
3:52 AM 73.9 °F - 63.0 °F 68% 29.94 in 10.0 mi SW 3.5 mph - N/A   Clear
4:52 AM 70.0 °F - 63.0 °F 78% 29.95 in 10.0 mi SSW 3.5 mph - N/A   Clear
5:52 AM 68.0 °F - 63.0 °F 84% 29.95 in 10.0 mi SSW 5.8 mph - N/A   Mostly Cloudy
6:52 AM 70.0 °F - 63.0 °F 78% 29.96 in 10.0 mi SSW 6.9 mph - N/A   Mostly Cloudy
7:52 AM 69.1 °F - 63.0 °F 81% 29.98 in 9.0 mi SSW 4.6 mph - N/A   Mostly Cloudy
8:52 AM 73.0 °F - 64.0 °F 73% 29.99 in 10.0 mi SSW 6.9 mph - N/A   Mostly Cloudy
9:52 AM 79.0 °F - 64.9 °F 62% 29.99 in 10.0 mi SSW 9.2 mph - N/A   Mostly Cloudy
10:52 AM 82.0 °F 83.8 °F 64.9 °F 56% 29.98 in 10.0 mi SW 9.2 mph - N/A   Scattered Clouds
11:52 AM 88.0 °F 89.6 °F 64.9 °F 46% 29.97 in 10.0 mi WSW 11.5 mph - N/A   Partly Cloudy
12:52 PM 90.0 °F 90.0 °F 61.0 °F 38% 29.95 in 10.0 mi WSW 15.0 mph 25.3 mph N/A   Scattered Clouds
1:52 PM 91.9 °F 91.5 °F 60.1 °F 34% 29.93 in 10.0 mi West 20.7 mph 27.6 mph N/A   Partly Cloudy
2:52 PM 93.0 °F 92.7 °F 60.1 °F 33% 29.91 in 10.0 mi WSW 16.1 mph 25.3 mph N/A   Partly Cloudy
3:52 PM 93.9 °F 93.2 °F 59.0 °F 31% 29.89 in 10.0 mi West 13.8 mph 25.3 mph N/A   Partly Cloudy
4:52 PM 93.9 °F 92.9 °F 57.9 °F 30% 29.88 in 10.0 mi West 13.8 mph - N/A   Partly Cloudy
5:52 PM 91.9 °F 90.6 °F 57.0 °F 31% 29.89 in 10.0 mi West 16.1 mph 20.7 mph N/A   Partly Cloudy
6:52 PM 88.0 °F 87.1 °F 59.0 °F 37% 29.90 in 10.0 mi West 9.2 mph 20.7 mph N/A   Partly Cloudy
7:52 PM 82.9 °F 83.2 °F 60.1 °F 46% 29.92 in 10.0 mi West 5.8 mph - N/A   Clear
8:52 PM 81.0 °F 81.7 °F 61.0 °F 50% 29.93 in 10.0 mi WSW 4.6 mph - N/A   Clear
9:52 PM 80.1 °F 81.2 °F 62.1 °F 54% 29.93 in 10.0 mi SW 6.9 mph - N/A   Clear
10:52 PM 79.0 °F - 62.1 °F 56% 29.92 in 10.0 mi SW 4.6 mph - N/A   Clear
11:52 PM 75.9 °F - 62.1 °F 62% 29.91 in 10.0 mi SSW 3.5 mph - N/A   Clear